Regional Weather Roundup
Issued by NWS

Home | Current Version | Previous Version | Graphics & Text | Print | Product List | Glossary On
Versions: 1 2 3 4 5 6 7 8 9 10 11 12 13 14 15 16 17 18 19 20 21 22 23 24 25 26 27 28 29 30 31 32 33 34 35 36 37 38 39 40 41 42 43 44 45 46 47 48 49 50
000
ASUS43 KTOP 211659
RWRKS

WEATHER ROUNDUP FOR KANSAS
NATIONAL WEATHER SERVICE GOODLAND KS
1200 PM CDT WED JUN 21 2017

NOTE:  "FAIR" INDICATES FEW OR NO CLOUDS BELOW 12,000 FEET WITH NO
SIGNIFICANT WEATHER AND/OR OBSTRUCTIONS TO VISIBILITY.

KSZ001>006-013>018-027>032-041>047-211800-
NORTHWEST KANSAS

CITY           SKY/WX    TMP DP  RH WIND       PRES   REMARKS
GOODLAND       SUNNY     91  60  35 W12       29.88F
HAYS           SUNNY     89  68  49 S20G29    29.83F
HILL CITY      SUNNY     93  67  42 SW14      29.82S HX  96
RUSSELL        SUNNY     92  65  40 S21G32    29.82F
$$

KSZ061>065-074>080-084>089-211800-
SOUTHWEST KANSAS

CITY           SKY/WX    TMP DP  RH WIND       PRES   REMARKS
DODGE CITY     SUNNY     87  68  52 S24G32    29.88F
ELKHART          N/A    N/A N/A N/A MISG        N/A
GARDEN CITY    SUNNY     93  62  35 SW20G29   29.87F
GREAT BEND     CLOUDY    89  68  49 S23G31    29.85F
LIBERAL        SUNNY     94  64  37 S18G24    29.90F HX  95
$$

KSZ066>073-081>083-090>101-211800-
SOUTHEAST KANSAS

CITY           SKY/WX    TMP DP  RH WIND       PRES   REMARKS
CHANUTE        PTSUNNY   87  66  49 S16       29.94F
COFFEYVILLE    MOSUNNY   87  70  56 S13       29.94F
HUTCHINSON     MOSUNNY   88  65  46 S25G32    29.89F
MEDICINE LODGE   N/A     86  64  47 S20G29    29.89F
NEWTON         MOSUNNY   87  63  44 S28       29.90F
PARSONS        MOSUNNY   85  67  54 S9        29.96F
WICHITA INTL   MOSUNNY   88  63  43 S21G33    29.91F
WICHITA JABRA  MOSUNNY   83  61  47 S20G31    29.92S
WINFIELD       CLOUDY    87  63  44 S14G25    29.94F
$$

KSZ007>012-019>026-033>040-048>060-102>105-211800-
NORTHEAST KANSAS

CITY           SKY/WX    TMP DP  RH WIND       PRES   REMARKS
CONCORDIA      SUNNY     92  66  42 S21G33    29.82F
EMPORIA        MOSUNNY   86  66  51 S18G28    29.91F
LAWRENCE       CLOUDY    85  66  53 S14G21    29.88F
MANHATTAN      SUNNY     94  64  37 SW21G32   29.84R HX  95
OLATHE IND     SUNNY     87  65  47 S15G26    29.91F
OLATHE EXE     SUNNY     86  66  51 S13G25    29.91F
SALINA         SUNNY     93  64  38 S22G31    29.86R
TOPEKA BILLARD MOSUNNY   89  68  49 S16       29.86F
TOPEKA FORBES  SUNNY     90  67  46 S18G25    29.88S
$$




USA.gov is the U.S. government's official web portal to all federal, state and local government web resources and services.